Temperature
16 17 17 17 17 17 17 17 17 17 17 17 17 17 16 16 16 15 15 15 15 15 15 15 15 15 15 14 14 14 14 14 14 14 14 14 14 14
16 16 16 16 17 17 17 17 17 17 17 17 17 17 16 16 16 15 15 15 15 15 15 15 15 15 15 15 14 14 14 14 14 14 14 14 14 14
16 16 16 16 16 16 16 17 17 17 17 17 17 16 16 16 16 15 15 15 15 15 15 15 15 15 15 14 14 14 14 14 14 14 14 14 13 13
16 16 16 16 16 16 16 16 16 16 16 16 16 16 16 16 16 15 15 15 15 15 15 15 15 15 15 15 14 14 14 14 14 14 14 14 13 13
16 16 16 16 16 16 16 16 16 16 16 16 16 16 16 16 15 15 15 15 15 15 15 15 15 15 15 15 14 14 14 14 14 14 14 14 13 13
15 16 15 15 16 16 16 16 16 16 16 16 16 16 16 16 15 15 15 15 15 15 15 15 15 15 15 14 14 14 14 14 14 14 13 13 13 13
15 15 15 15 15 15 15 15 15 15 15 15 15 15 15 15 15 15 15 15 15 15 15 15 14 14 14 14 14 14 14 14 14 14 13 13 13 13
15 15 15 15 15 15 15 15 15 15 15 15 15 15 15 15 15 15 14 14 14 14 14 14 14 14 14 14 14 14 14 14 14 13 13 13 13 13
15 15 15 15 15 16 16 16 15 15 15 15 15 15 15 15 14 14 14 14 14 14 14 14 14 14 14 13 14 14 13 13 13 13 13 13 13 13
15 15 15 15 15 15 15 15 15 15 15 15 15 15 15 14 14 14 13 13 13 14 13 13 13 13 13 13 13 13 13 13 13 13 13 13 12 12
15 15 15 15 15 15 15 15 15 15 14 14 14 14 14 14 14 13 13 13 13 13 13 12 12 12 12 12 12 12 12 12 12 12 12 12 12 12
15 15 15 15 15 15 14 14 14 14 14 14 14 14 14 13 13 13 13 12 12 12 12 12 12 12 12 12 12 12 12 12 12 12 12 12 12 12
15 15 15 15 14 14 14 14 14 14 14 13 13 13 13 13 13 13 12 12 12 12 12 11 11 11 11 11 11 11 11 11 11 11 11 11 11 11
15 15 14 14 14 14 14 14 14 13 13 13 13 13 13 12 12 12 12 12 12 11 11 11 11 11 10 10 10 10 10 10 11 11 11 11 11 11
14 14 14 14 14 14 14 13 13 13 13 13 13 12 12 12 12 12 12 11 11 11 11 11 11 10 10 10 10 10 10 10 10 10 10 10 10 10
14 14 14 14 13 13 13 13 13 12 12 12 12 12 12 11 11 11 11 11 11 11 11 10 10 10 10 10 9 9 9 9 9 9 9 9 9 10
14 13 13 13 13 13 12 12 12 12 12 12 11 11 11 11 11 11 11 10 10 10 10 10 10 10 10 9 9 9 9 9 9 9 9 9 9 9
13 12 12 12 12 12 12 12 11 11 11 11 10 10 10 10 10 10 10 10 10 10 9 9 9 9 9 9 9 9 9 8 8 8 8 8 8 9
12 12 11 11 11 11 11 11 11 11 10 10 10 10 10 9 9 9 9 9 9 9 9 9 9 8 8 8 8 8 8 8 8 8 8 8 8 8
11 11 11 11 11 11 11 10 10 10 10 10 10 9 9 9 9 9 9 8 8 8 8 8 8 8 7 7 7 8 8 8 7 7 7 7 7 8
11 11 11 10 10 10 10 10 10 9 9 9 9 9 9 9 8 8 8 8 8 8 7 7 7 7 7 7 7 7 7 7 7 7 7 7 7 7
10 10 10 10 9 9 9 9 9 9 9 9 8 8 8 8 8 8 7 7 7 7 7 7 7 7 7 6 6 6 7 7 7 7 7 7 7 7
9 9 9 9 9 9 8 8 8 8 8 8 8 8 7 7 7 7 7 6 6 6 6 6 6 6 6 6 6 6 6 7 7 7 7 8 7 7
Wind_Speed
4 4 2 2 1 1 1 1 1 1 2 3 3 4 6 8 13 12 10 14 16 15 14 13 12 12 12 11 11 12 12 12 13 13 13 13 13 13
3 4 3 2 1 1 1 1 1 1 1 1 2 3 4 5 11 9 8 13 18 19 18 17 16 16 15 15 14 14 14 14 14 14 15 15 15 15
4 4 3 2 1 2 1 1 1 1 1 1 1 3 3 2 4 7 8 10 14 21 22 22 21 20 19 18 18 17 17 17 17 16 16 16 16 16
5 5 5 4 3 2 2 2 1 0 1 2 1 2 3 5 5 5 8 10 11 15 22 24 24 23 22 21 21 21 21 20 20 19 18 18 17 17
6 6 6 5 4 3 3 2 2 3 3 3 3 3 3 4 5 6 7 7 12 12 17 23 25 25 25 25 25 24 24 23 22 21 21 20 19 19
6 6 6 6 6 5 4 4 3 3 2 3 4 4 4 4 4 4 5 5 6 8 8 11 18 25 27 27 27 26 26 25 24 23 22 22 21 21
6 6 6 6 6 5 5 3 4 4 4 4 5 4 3 2 2 3 4 4 4 4 4 5 6 8 13 20 24 26 26 26 25 24 24 23 23 22
6 6 6 7 7 7 6 4 2 4 4 3 4 4 4 3 2 3 4 4 4 3 3 6 5 6 6 12 16 20 23 24 25 25 25 25 24 24
7 7 8 9 11 8 9 10 9 9 8 5 6 6 5 4 4 5 5 5 6 5 6 7 6 7 8 15 15 15 18 21 23 25 26 26 25 25
7 7 7 6 7 7 8 8 8 8 10 9 8 8 7 4 4 5 6 7 7 7 6 7 7 7 8 9 14 16 18 21 23 24 25 26 26 26
7 8 7 7 7 7 6 6 6 6 9 10 10 9 9 8 5 3 5 6 8 7 5 5 6 7 6 6 11 16 17 18 20 22 24 25 26 24
7 7 8 8 7 8 6 5 6 5 5 5 5 8 8 10 11 8 6 7 7 6 5 4 6 6 6 6 5 8 11 15 18 20 22 23 23 15
6 6 5 9 10 10 8 5 6 5 4 5 5 5 6 6 7 7 7 7 7 7 6 5 6 6 7 7 7 7 7 6 9 12 16 19 21 15
4 2 2 7 10 10 8 6 6 4 4 5 5 5 5 5 5 5 6 8 9 9 9 7 7 8 9 11 9 7 7 6 6 6 7 13 16 19
2 1 2 3 5 6 7 8 5 4 5 5 5 5 4 5 4 4 5 6 9 12 14 12 9 8 8 10 10 9 9 8 7 7 7 7 6 6
4 2 3 4 3 3 4 5 5 4 4 5 5 5 4 4 4 4 5 5 6 7 8 12 9 8 8 9 10 11 9 8 8 8 8 7 6 6
5 3 3 3 3 3 3 3 4 4 4 5 5 5 5 5 5 5 4 5 6 7 7 6 6 7 8 9 10 10 10 9 8 8 8 9 8 8
4 3 3 3 3 3 3 3 3 3 3 4 4 5 5 5 5 5 5 6 7 7 6 6 6 7 7 8 9 10 9 9 8 8 8 10 11 9
3 3 3 3 2 2 2 2 3 3 3 4 5 5 5 5 5 5 5 6 6 6 6 6 6 7 10 11 8 8 9 9 9 9 9 9 11 10
2 2 2 1 1 1 1 2 2 3 3 4 4 4 4 5 5 5 5 6 7 7 7 7 6 6 8 10 11 10 11 9 9 10 10 10 10 12
1 1 1 1 2 2 2 2 3 3 3 3 4 5 4 4 5 5 6 8 7 7 8 8 7 9 8 7 9 9 9 11 12 10 10 10 12 11
1 1 1 2 2 2 2 3 3 3 3 4 4 4 4 4 5 6 6 7 7 7 8 8 7 7 6 8 11 12 12 11 12 16 17 15 10 10
2 2 2 2 3 2 3 3 4 4 4 4 4 4 5 5 6 6 7 7 7 8 8 9 8 7 8 8 10 11 13 13 11 10 11 13 17 19
Wind_Direction
213 199 236 259 248 280 318 289 251 237 215 185 171 170 164 162 172 188 194 204 211 217 223 229 237 244 250 256 261 265 267 268 269 269 268 269 270 271
206 193 207 251 248 241 258 281 312 309 281 178 182 153 149 169 177 200 219 217 218 223 227 231 236 241 247 251 255 259 262 264 265 266 268 269 270 271
202 178 185 267 284 284 232 221 257 295 287 281 161 138 145 164 179 227 241 227 226 230 229 231 235 239 244 248 252 256 259 260 262 264 266 268 269 270
201 186 187 208 200 278 299 258 226 163 242 289 271 191 196 196 202 220 244 251 248 241 230 230 234 238 242 246 250 254 257 259 260 262 263 265 266 266
191 191 194 203 199 211 237 265 258 239 200 240 261 242 221 213 210 227 244 253 264 260 238 232 234 239 242 245 248 251 254 257 259 260 261 263 265 265
194 194 200 202 198 209 226 232 257 273 256 246 259 254 239 224 204 226 255 250 255 268 267 249 237 239 242 245 249 252 253 255 257 259 260 261 262 263
203 202 208 205 201 199 225 222 235 236 247 243 249 254 252 246 239 247 266 279 270 266 271 269 255 244 248 251 251 253 252 251 252 254 256 258 260 261
208 209 212 203 200 200 217 229 237 253 268 280 282 280 286 299 308 296 294 298 291 296 312 296 293 281 266 264 256 248 247 248 250 252 253 255 256 258
210 213 227 226 202 205 214 225 235 236 230 243 265 275 285 295 312 305 296 291 283 288 299 287 282 279 276 283 280 267 252 249 250 251 252 253 255 257
214 214 224 248 230 207 213 219 222 228 226 229 239 251 260 271 272 275 280 281 273 267 260 271 275 273 281 285 283 278 268 260 256 254 253 253 255 257
235 225 218 223 226 217 224 235 240 246 242 232 224 231 239 247 248 267 273 276 280 278 270 271 280 283 281 281 285 286 279 272 265 262 260 258 258 260
231 230 223 219 205 197 213 228 241 252 269 268 243 247 245 246 239 229 243 258 270 279 277 283 290 300 293 282 285 296 287 280 274 271 268 266 265 263
226 218 211 199 199 201 207 218 231 250 268 268 263 252 243 240 235 228 228 235 251 262 281 296 295 296 289 292 292 287 284 281 280 278 275 270 266 256
233 227 199 188 193 203 210 218 225 237 255 259 261 261 262 263 261 251 242 239 244 255 271 277 278 279 284 290 292 289 284 284 284 278 272 275 271 263
240 90 110 172 189 205 215 216 218 226 237 249 256 263 266 273 275 272 269 260 257 260 266 261 259 267 271 280 287 289 293 289 282 283 282 276 271 270
228 191 158 174 201 210 202 217 224 235 241 252 263 271 275 270 266 268 273 274 273 273 266 267 264 264 272 278 282 286 285 285 288 287 287 285 278 273
192 201 207 201 206 218 223 222 225 227 239 252 263 273 278 280 278 277 276 282 282 285 288 287 281 272 267 276 283 282 284 285 285 288 292 292 285 278
164 206 223 228 226 227 229 232 229 236 245 253 260 268 276 282 285 286 284 283 283 287 290 293 298 298 291 276 260 275 281 285 287 287 286 289 289 283
168 216 230 238 241 238 242 248 253 242 241 255 263 267 273 281 287 290 292 293 293 294 296 299 301 302 301 300 294 281 288 291 292 290 287 286 288 288
215 229 243 255 266 277 281 283 283 278 266 264 269 275 279 284 291 294 295 297 301 301 300 298 297 296 292 294 297 295 281 280 286 287 289 288 285 283
208 250 306 330 337 336 328 317 310 303 307 305 296 291 290 294 297 299 299 301 297 293 293 295 295 295 290 294 295 293 290 282 278 279 286 290 291 291
42 16 351 341 346 347 339 329 314 309 313 310 309 315 315 312 305 302 302 300 296 295 297 297 300 303 299 294 294 296 298 300 293 282 273 267 275 282
32 18 1 4 16 9 357 337 327 324 326 329 330 327 321 313 304 297 294 294 298 304 307 305 305 301 298 296 295 297 298 302 303 302 296 287 276 267
Height
1554 1556 1558 1560 1561 1562 1563 1565 1566 1566 1567 1567 1568 1568 1569 1569 1569 1569 1568 1568 1567 1567 1566 1566 1565 1564 1564 1563 1562 1562 1561 1561 1560 1560 1559 1559 1558 1558
1552 1554 1556 1558 1559 1560 1561 1562 1563 1565 1565 1565 1566 1566 1567 1567 1566 1566 1566 1565 1564 1564 1564 1563 1562 1561 1561 1560 1559 1558 1557 1557 1556 1555 1555 1554 1554 1553
1550 1552 1553 1555 1556 1558 1559 1560 1561 1562 1563 1564 1564 1564 1565 1565 1564 1564 1563 1562 1562 1561 1560 1560 1559 1558 1557 1556 1555 1554 1553 1552 1551 1550 1550 1549 1549 1548
1548 1549 1551 1553 1554 1556 1557 1558 1559 1560 1561 1561 1562 1562 1562 1562 1561 1561 1560 1560 1559 1558 1557 1556 1556 1555 1554 1553 1551 1550 1549 1548 1547 1546 1545 1544 1543 1542
1546 1547 1549 1550 1552 1553 1554 1556 1557 1558 1558 1559 1559 1559 1559 1559 1558 1558 1557 1556 1556 1555 1554 1553 1552 1551 1549 1548 1547 1546 1544 1543 1542 1541 1539 1538 1537 1536
1543 1545 1546 1548 1549 1550 1552 1553 1554 1555 1555 1556 1556 1556 1556 1556 1555 1554 1553 1553 1552 1551 1550 1549 1547 1546 1545 1543 1542 1541 1539 1538 1537 1535 1534 1533 1531 1530
1541 1542 1544 1545 1546 1547 1549 1550 1551 1551 1552 1553 1553 1553 1553 1553 1552 1551 1550 1549 1548 1548 1546 1545 1543 1542 1540 1538 1537 1535 1534 1532 1531 1529 1528 1526 1525 1524
1537 1539 1540 1542 1543 1544 1545 1546 1547 1548 1548 1549 1549 1549 1549 1548 1548 1547 1546 1545 1543 1543 1541 1539 1538 1536 1535 1533 1532 1530 1528 1527 1525 1523 1521 1520 1518 1516
1534 1535 1537 1538 1539 1540 1541 1542 1543 1543 1544 1544 1544 1544 1544 1544 1543 1542 1541 1539 1538 1537 1536 1532 1532 1530 1529 1528 1527 1524 1522 1521 1519 1517 1515 1513 1511 1509
1530 1531 1532 1534 1535 1536 1536 1537 1537 1538 1539 1539 1539 1539 1539 1538 1537 1537 1535 1534 1532 1531 1530 1527 1525 1524 1522 1521 1520 1518 1516 1514 1512 1510 1508 1506 1504 1502
1526 1527 1528 1529 1530 1532 1532 1533 1533 1533 1534 1534 1534 1533 1533 1533 1532 1531 1530 1528 1525 1525 1525 1522 1519 1517 1515 1514 1513 1511 1509 1507 1505 1503 1501 1499 1497 1495
1521 1522 1523 1524 1525 1526 1527 1527 1527 1528 1529 1529 1529 1528 1527 1527 1526 1525 1524 1523 1520 1519 1518 1517 1514 1512 1508 1507 1506 1504 1502 1500 1498 1496 1494 1491 1489 1487
1516 1517 1518 1519 1520 1521 1522 1522 1522 1523 1523 1523 1523 1522 1521 1521 1520 1519 1518 1517 1515 1513 1513 1512 1509 1506 1504 1499 1498 1497 1495 1493 1490 1488 1486 1484 1482 1480
1511 1513 1514 1514 1515 1516 1517 1517 1517 1518 1518 1517 1517 1516 1516 1515 1514 1513 1512 1511 1510 1508 1507 1506 1503 1501 1498 1494 1490 1489 1487 1486 1483 1480 1478 1476 1473 1471
1506 1507 1509 1510 1510 1511 1511 1511 1512 1512 1511 1511 1510 1510 1510 1509 1509 1508 1507 1505 1504 1503 1501 1500 1498 1495 1493 1489 1485 1482 1479 1477 1476 1473 1470 1468 1465 1463
1501 1502 1503 1504 1505 1505 1506 1506 1506 1506 1506 1505 1505 1505 1505 1504 1503 1502 1501 1499 1498 1496 1496 1494 1492 1489 1486 1483 1480 1475 1473 1470 1468 1466 1463 1460 1457 1455
1496 1497 1498 1499 1500 1500 1500 1501 1501 1501 1501 1500 1500 1500 1499 1499 1498 1497 1496 1494 1492 1490 1488 1487 1485 1483 1480 1477 1473 1469 1466 1463 1461 1458 1455 1451 1448 1447
1492 1493 1494 1495 1496 1496 1497 1497 1497 1497 1496 1496 1496 1495 1494 1493 1492 1491 1490 1489 1487 1485 1483 1481 1478 1475 1472 1470 1469 1464 1460 1457 1454 1451 1448 1444 1439 1438
1490 1490 1491 1492 1493 1493 1493 1493 1493 1493 1492 1492 1492 1491 1489 1488 1487 1486 1485 1483 1481 1479 1477 1475 1473 1470 1465 1461 1459 1459 1455 1450 1447 1444 1441 1437 1433 1430
1487 1488 1489 1490 1490 1490 1490 1490 1489 1489 1488 1487 1487 1486 1485 1484 1482 1481 1479 1478 1476 1473 1471 1469 1467 1465 1461 1457 1452 1450 1449 1445 1441 1437 1433 1429 1426 1422
1485 1486 1487 1487 1487 1487 1486 1486 1485 1485 1484 1483 1482 1481 1480 1478 1477 1475 1474 1472 1470 1468 1466 1464 1462 1459 1456 1452 1447 1442 1441 1439 1436 1432 1427 1422 1418 1414
1483 1483 1484 1484 1484 1484 1483 1482 1481 1481 1480 1479 1478 1476 1475 1473 1472 1470 1468 1467 1465 1463 1460 1458 1456 1453 1450 1446 1442 1437 1433 1430 1427 1425 1421 1418 1414 1408
1481 1482 1482 1482 1481 1480 1480 1479 1478 1477 1476 1474 1473 1471 1470 1468 1466 1465 1463 1462 1460 1457 1455 1452 1449 1447 1444 1441 1437 1432 1428 1424 1420 1416 1413 1410 1408 1404